Regional Weather Roundup
Issued by NWS

Home | Current Version | Previous Version | Text Only | Print | Product List | Glossary Off
Versions: 1 2 3 4 5 6 7 8 9 10 11 12 13 14 15 16 17 18 19 20 21 22 23 24 25 26 27 28 29 30 31 32 33 34 35 36 37 38 39 40 41 42 43 44 45 46 47 48 49 50

000
ASUS43 KIND 221209
RWRIN

WEATHER ROUNDUP FOR INDIANA
NATIONAL WEATHER SERVICE INDIANAPOLIS IN
700 AM EST MON JAN 22 2018

NOTE: "FAIR" INDICATES FEW OR NO CLOUDS BELOW 12,000 FEET WITH NO
SIGNIFICANT WEATHER AND/OR OBSTRUCTIONS TO VISIBILITY.

* - STATION DOES NOT REPORT WEATHER SUCH AS PRECIPITATION OR FOG.

+ - STATION NOT QUALITY CONTROLLED BY THE NATIONAL WEATHER SERVICE.
    USE DATA WITH CAUTION...ESPECIALLY DEWPOINT AND RELATIVE
    HUMIDITY OBSERVATIONS.

INZ001>003-010>013-019-020-221300-
NORTHWEST INDIANA

CITY           SKY/WX    TMP DP  RH WIND       PRES   REMARKS
GARY /AIRPORT/ LGT RAIN  50  50 100 SE8       29.66F
KNOX *+        MOCLDY    46  45  93 SE13      29.70F
LA PORTE +     MOCLDY    44  44 100 SE8       29.70F
6HR MIN TEMP:  41; 6HR MAX TEMP:  46; 6HR PCP:  0.17;

MICHIGAN CITY+ CLOUDY    48  48 100 S5        29.68F
MONTICELLO +   FAIR      50  45  84 SE8       29.69F
6HR MIN TEMP:  46; 6HR MAX TEMP:  49; 6HR PCP:  0.04;

RENSSELAER +   CLOUDY    50  43  76 SE10      29.68S
VALPARAISO     CLOUDY    48  47  96 SE7       29.68F
6HR MIN TEMP:  46; 6HR MAX TEMP:  48; 6HR PCP:  0.11;


$$

LMZ046-743>745-221300-
SOUTHERN LAKE MICHIGAN

STATION/POSITION TIME  TEMP    WIND        PRES    WAVE
                       AIR SEA DIR/SP/G            HT
                 (UTC) (F)     (DEG/KT/KT) (MB)    (FT)
BURNS HARBOR     1130   51     150/  9/ 20 1005.4F
MICHIGAN CITY    1140   50     130/ 14/ 19   N/A

$$

INZ004-005-014>016-021>024-221300-
NORTH CENTRAL INDIANA

CITY           SKY/WX    TMP DP  RH WIND       PRES   REMARKS
GOSHEN         CLOUDY    48  46  93 SE13      29.75F
6HR MIN TEMP:  46; 6HR MAX TEMP:  48; 6HR PCP:  0.13;

LOGANSPORT +   FAIR      48  45  87 SE13      29.73F
PERU/GRISSOM   CLOUDY    49  49 100 S14       29.73F
6HR MIN TEMP:  46; 6HR MAX TEMP:  49; 6HR PCP: TRACE;

ROCHESTER +    FAIR      50 N/A N/A SE10      29.73F
SOUTH BEND     MOCLDY    46  45  96 SE9       29.72F FOG
6HR MIN TEMP:  44; 6HR MAX TEMP:  47; 6HR PCP:  0.25;

WARSAW +       CLOUDY    46  46 100 S6        29.75S

$$

INZ006>009-017-018-025>027-221300-
NORTHEAST INDIANA

CITY           SKY/WX    TMP DP  RH WIND       PRES   REMARKS
AUBURN +       CLOUDY   N/A N/A N/A CALM      29.80S HAZE
FORT WAYNE     CLOUDY    49  46  90 S10       29.79F
6HR MIN TEMP:  45; 6HR MAX TEMP:  49; 6HR PCP:  0.05;

HUNTINGTON +   CLOUDY    49  48  95 S7        29.77F
6HR MIN TEMP:  46; 6HR MAX TEMP:  49; 6HR PCP:  0.02;

KENDALLVILLE + CLOUDY    46  46 100 SE9       29.78S

$$

INZ028-029-035-036-043>045-051>053-221300-
WEST CENTRAL INDIANA

CITY           SKY/WX    TMP DP  RH WIND       PRES   REMARKS
CRAWFORDSVL +  MOCLDY    47  45  93 MISG      29.71F
6HR MIN TEMP:  46; 6HR MAX TEMP:  51; 6HR PCP:  0.01;

GREENCASTLE +  MOCLDY    50  43  76 SE10      29.73F
LAFAYETTE      MOCLDY    51  46  83 SE10      29.69F
6HR MIN TEMP:  48; 6HR MAX TEMP:  52; 6HR PCP: TRACE;

TERRE HAUTE    FAIR      51  43  74 S10       29.70F
6HR MIN TEMP:  49; 6HR MAX TEMP:  54; 6HR PCP:  0.03;


$$

INZ030>032-037>040-046>048-054>057-064-065-221300-
CENTRAL INDIANA

CITY           SKY/WX    TMP DP  RH WIND       PRES   REMARKS
FISHERS *+       N/A     50  48  93 S13       29.77
FRANKFORT +    FAIR      50  46  87 S18       29.74F
GREENWOOD *+   FAIR      50  45  83 S8        29.79F
6HR MIN TEMP:  49; 6HR MAX TEMP:  51;

INDIANAPOLIS   MOCLDY    49  45  86 SE13      29.76F
6HR MIN TEMP:  47; 6HR MAX TEMP:  49; 6HR PCP:  0.01;

-EAGLE CREEK   FAIR      50  45  83 SE10G16   29.76F
6HR MIN TEMP:  49; 6HR MAX TEMP:  50; 6HR PCP:  0.03;

MARION +       CLOUDY    51  46  83 S15G21    29.78S
MT COMFORT *+  FAIR      50  48  93 S7        29.79F
SHELBYVILLE    FAIR      50  43  77 S16       29.79F
6HR MIN TEMP:  50; 6HR MAX TEMP:  54; 6HR PCP: TRACE;

ZIONSVILLE +   FAIR      48  46  90 S14       29.76F
6HR MIN TEMP:  47; 6HR MAX TEMP:  49; 6HR PCP:  0.02;


$$

INZ033-034-041-042-049-050-058-059-221300-
EAST CENTRAL INDIANA

CITY           SKY/WX    TMP DP  RH WIND       PRES   REMARKS
MUNCIE         FAIR      55  45  68 S13       29.79F
6HR MIN TEMP:  54; 6HR MAX TEMP:  55; 6HR PCP: TRACE;

RICHMOND +     FAIR      43  43 100 S12       29.85F

$$

INZ060-061-067>069-081>083-085>088-221300-
SOUTHWEST INDIANA

CITY           SKY/WX    TMP DP  RH WIND       PRES   REMARKS
EVANSVILLE     FAIR      56  45  66 S13G22    29.73F
6HR MIN TEMP:  54; 6HR MAX TEMP:  57;

HUNTINGBURG +  MOCLDY    56  45  66 S18G24    29.77F
6HR MIN TEMP:  55; 6HR MAX TEMP:  57; 6HR PCP: TRACE;

WASHINGTON +   FAIR      54  42  64 S18       29.72F
6HR MIN TEMP:  49; 6HR MAX TEMP:  54;


$$

INZ062-063-066-070>080-084-089>092-221300-
SOUTH CENTRAL AND SOUTHEAST INDIANA

CITY           SKY/WX    TMP DP  RH WIND       PRES   REMARKS
BATESVILLE *+    N/A    N/A N/A N/A MISG        N/A
BEDFORD +      FAIR      54  43  66 SE13G20   29.78F
BLOOMINGTON    FAIR      52  44  74 SE10      29.75F
6HR MIN TEMP:  50; 6HR MAX TEMP:  53; 6HR PCP: TRACE;

FRENCH LICK *+ FAIR      55  37  50 SE9G18    29.78F
MADISON *+     FAIR      54  41  62 S13       29.86F
NORTH VERNON + FAIR      52  43  71 S13       29.83F
SEYMOUR +      FAIR      52  43  71 S8        29.82F

$$




USA.gov is the U.S. government's official web portal to all federal, state and local government web resources and services.